#timestamp,LO_Frequency,Hit,StdDev 
1617102015.0,286046992.4,N
1617102015.9,286046992.4,N
1617102035.8,286046990.2,N
1617102055.6,286046992.9,N
1617102075.4,286046991.6,N
1617102095.3,286046992.8,N
1617102115.1,286046993.0,N
1617102135.9,286046991.8,N
1617102155.7,286046994.2,N
1617102175.5,286046992.2,N
1617102195.4,286046996.3,N
1617102215.2,286046997.6,N
1617102235.0,286046996.3,N
1617102235.9,286046996.3,N
1617102255.8,286046994.0,N
1617102275.6,286046996.3,N
1617102295.5,286046995.7,N
1617102315.3,286046995.5,N
1617102335.1,286046997.5,N
1617102355.9,286046995.7,N
1617102375.7,286046995.2,N
1617102395.5,286046993.8,Y
1617102415.4,286046998.8,P
1617102435.2,286046999.8,N
1617102455.1,286046998.2,N
1617102456.0,286046998.2,N
1617102475.8,286047001.2,N
1617102495.6,286047000.7,N
1617102515.5,286047000.3,N
1617102535.3,286047000.0,N
1617102555.1,286047001.7,N
1617102575.9,286047001.0,N
1617102595.7,286047001.1,N
1617102615.6,286047002.8,N
1617102635.4,286047001.5,N
1617102655.2,286046999.8,N
1617102675.1,286047000.0,N
1617102676.0,286047000.0,N
1617102695.8,286047000.2,N
1617102715.6,286047001.0,N
1617102735.5,286046999.1,N
1617102755.3,286046999.1,N
1617102775.2,286046997.7,N
1617102795.9,286046997.4,N
1617102815.7,286046995.0,N
1617102835.6,286046995.1,N
1617102855.4,286046997.5,N
1617102875.2,286046995.2,N
1617102895.1,286046997.5,N
1617102896.0,286046997.5,N
1617102915.8,286046997.3,N
1617102935.7,286046997.3,N
1617102955.5,286046999.4,N
1617102975.3,286047000.6,N
1617102995.2,286046998.8,N
1617103015.9,286047001.2,N
1617103035.7,286047000.7,N
1617103055.6,286047000.3,N
1617103075.4,286047000.4,N
1617103095.3,286046998.5,N
1617103115.1,286046999.5,N
1617103116.0,286046999.5,N
1617103135.8,286046998.2,N
1617103155.7,286046999.2,N
1617103175.5,286046999.2,N
1617103195.3,286046998.3,N
1617103215.2,286047000.7,N
1617103235.0,286047001.1,N
1617103235.9,286047001.1,N
1617103255.8,286046998.5,N
1617103275.6,286047001.9,N
1617103295.4,286047000.8,N
1617103315.3,286047000.1,N
1617103335.1,286046998.4,N
1617103355.8,286047000.0,N
1617103375.7,286046999.9,N
1617103395.5,286047002.7,N
1617103415.4,286047000.4,N
1617103435.2,286047000.0,N
1617103455.0,286046999.7,N
1617103455.9,286046999.7,N
1617103475.8,286047000.0,N
1617103495.6,286046998.1,N
1617103515.4,286047001.0,N
1617103535.3,286047002.7,N
1617103555.1,286046999.9,N
1617103575.9,286047000.9,N
1617103595.7,286047002.6,N
1617103615.5,286047002.5,N
1617103635.4,286047004.1,Y
1617103655.2,286047003.7,P
1617103675.0,286047003.2,N
1617103675.9,286047003.2,N
1617103695.8,286047001.4,N
1617103715.6,286047001.6,N
1617103735.5,286047002.1,N
1617103755.3,286047003.9,Y
1617103775.1,286046998.5,P
1617103795.9,286046998.8,N
1617103815.7,286046999.6,N
1617103835.5,286046996.8,N
1617103855.4,286046995.0,N
1617103875.2,286046997.6,N
1617103895.1,286046995.4,N
1617103896.0,286046995.4,N
1617103915.8,286046995.2,N
1617103935.6,286046994.8,N
1617103955.5,286046994.1,N
1617103975.3,286046994.4,N
1617103995.1,286046992.3,Y
1617104015.9,286046994.1,P
1617104035.7,286046994.8,P
1617104055.6,286046997.3,N
1617104075.4,286046997.2,N
1617104095.2,286046997.5,N
1617104115.1,286046997.3,N
1617104116.0,286046997.3,N
1617104135.8,286046997.6,N
1617104155.6,286046998.0,N
1617104175.5,286046995.0,Y
1617104195.3,286047000.7,P
1617104215.2,286047001.1,N
1617104235.0,286047000.6,N
1617104235.9,286047000.6,N
1617104255.7,286047001.1,N
1617104275.6,286046998.3,N
1617104295.4,286046998.6,N
1617104315.3,286046999.1,N
1617104335.1,286046999.4,N
1617104336.0,286046999.4,N
1617104355.8,286046999.1,N
1617104375.7,286046998.6,N
1617104395.5,286047001.1,N
1617104415.3,286046999.4,N
1617104435.2,286046999.4,N
1617104455.0,286046997.4,N
1617104455.9,286046997.4,N
1617104475.8,286046997.7,N
1617104495.6,286046995.1,Y
1617104515.4,286046996.3,P
1617104535.3,286046993.3,P
1617104555.1,286046994.9,N
1617104575.8,286046995.4,N
1617104595.7,286046995.4,N
1617104615.5,286046996.1,N
1617104635.4,286046995.3,N
1617104655.2,286046995.7,N
1617104675.0,286046995.7,N
1617104675.9,286046995.7,Y
1617104695.8,286046999.8,P
1617104715.6,286047002.7,N
1617104735.4,286047002.0,N
1617104755.3,286047000.4,N
1617104775.1,286047000.3,N
1617104795.9,286047001.9,N
1617104815.7,286047001.7,N
1617104835.5,286047002.6,N
1617104855.4,286047003.6,N
1617104875.2,286047004.2,N
1617104895.0,286047002.3,N
1617104895.9,286047002.3,N
1617104915.8,286047001.6,N
1617104935.6,286047000.5,N
1617104955.5,286046999.9,N
1617104975.3,286047000.0,N
1617104995.1,286047000.1,N
1617105015.9,286046999.8,N
1617105035.7,286047002.8,N
1617105055.5,286047002.2,N
1617105075.4,286047001.5,N
1617105095.2,286047004.3,N
1617105115.1,286047002.3,N
1617105116.0,286047002.3,N
1617105135.8,286046998.5,N
1617105155.6,286046998.8,N
1617105175.5,286046999.0,N
1617105195.3,286046996.8,N
1617105215.1,286046999.1,N
1617105235.9,286046999.0,N
1617105255.7,286046998.8,N
1617105275.6,286046998.6,N
1617105295.4,286046999.5,N
1617105315.2,286046997.6,N
1617105335.1,286046997.0,N
1617105336.0,286046997.0,N
1617105355.8,286046999.4,N
1617105375.6,286046995.4,N
1617105395.5,286046999.6,N
1617105415.3,286046997.6,N
1617105435.2,286046999.3,N
1617105455.9,286046995.0,N
1617105475.7,286046993.3,Y
1617105495.6,286046995.2,P
1617105515.4,286046995.4,N
1617105535.2,286046997.7,N
1617105555.1,286046999.2,N
1617105556.0,286046999.2,N
1617105575.8,286046997.4,N
1617105595.7,286046999.2,N
